Waarnemingen

Advertentie
Mijn weer
Hohn, Duitsland (10038): temperatuur & dauwpunt: 09.08.2018 01:00:00 - 15.08.2018 01:00:00 (CEST)Hohn, Duitsland (10038): windsnelheid & windstoten: 09.08.2018 01:00:00 - 15.08.2018 01:00:00 (CEST)Hohn, Duitsland (10038): windrichting: 09.08.2018 01:00:00 - 15.08.2018 01:00:00 (CEST)Hohn, Duitsland (10038): luchtdruk: 09.08.2018 01:00:00 - 15.08.2018 01:00:00 (CEST)Hohn, Duitsland (10038): zicht: 09.08.2018 01:00:00 - 15.08.2018 01:00:00 (CEST)
Datum & Tijd tt [°C] td [°C] ff [km/u] ff [kn] fx [km/u] fx [kn] dd ppp [hPa] vv [km]
15.08.2018 01:00:00 16,6 14,4 18 10 - - W 1014,2 25
15.08.2018 00:00:00 17,0 15,0 22 12 - - WNW 1013,8 25
14.08.2018 23:00:00 17,1 15,6 18 10 - - W 1013,2 15
14.08.2018 22:00:00 17,7 16,6 14 8 - - WNW 1012,6 15
14.08.2018 21:00:00 18,5 16,5 18 10 - - W 1011,9 9
14.08.2018 20:00:00 19,5 16,1 18 10 - - W 1011,2 20
14.08.2018 19:00:00 21,1 15,4 22 12 - - WNW 1010,9 20
14.08.2018 18:00:00 21,1 13,9 32 18 - - W 1010,4 20
14.08.2018 17:00:00 21,5 15,1 32 18 - - WNW 1009,9 20
14.08.2018 16:00:00 21,7 15,0 36 19 50 27 W 1009,4 20
14.08.2018 15:00:00 22,2 15,1 29 16 - - W 1008,6 20
14.08.2018 14:00:00 22,2 13,8 32 18 - - W 1008,1 20
14.08.2018 13:00:00 21,9 14,8 25 14 - - WNW 1007,7 20
14.08.2018 12:00:00 20,9 16,5 22 12 - - W 1007,3 25
14.08.2018 11:00:00 20,6 16,0 15 8 - - W 1006,9 10
14.08.2018 10:00:00 19,1 16,7 11 6 - - WZW 1006,7 15
14.08.2018 09:00:00 18,4 16,8 11 6 - - WZW 1006,3 9
14.08.2018 08:00:00 17,3 16,2 11 6 - - ZW 1005,8 6
14.08.2018 07:00:00 16,7 15,5 7 4 - - ZZW 1005,3 3,5
14.08.2018 06:00:00 16,5 15,4 7 4 - - ZZW 1005,1 3,2
14.08.2018 05:00:00 16,9 15,9 7 4 - - WZW 1005,0 2,5
14.08.2018 04:00:00 16,8 15,8 7 4 - - ZW 1004,9 2,0
14.08.2018 03:00:00 16,8 15,8 7 4 - - ZZW 1004,9 2,5
14.08.2018 02:00:00 16,6 15,6 7 4 - - Z 1005,0 4,0
14.08.2018 01:00:00 16,2 15,2 7 4 - - Z 1005,0 5
14.08.2018 00:00:00 15,8 15,0 4 2 - - N 1005,0 5
13.08.2018 23:00:00 15,9 14,8 7 4 - - N 1004,8 10
13.08.2018 22:00:00 16,7 15,6 4 2 - - N 1004,7 6
13.08.2018 21:00:00 19,4 14,6 11 6 - - Z 1004,9 9
13.08.2018 20:00:00 20,6 13,4 7 4 - - N 1004,3 14
13.08.2018 19:00:00 22,3 13,3 11 6 - - OZO 1004,2 20
13.08.2018 18:00:00 20,6 14,0 7 4 - - ZZW 1004,9 20
13.08.2018 17:00:00 21,5 13,3 7 4 - - ZW 1005,4 15
13.08.2018 16:00:00 22,7 13,2 4 2 - - Z 1005,3 25
13.08.2018 15:00:00 22,6 13,3 7 4 - - O 1005,6 20
13.08.2018 14:00:00 22,0 13,3 11 6 - - O 1006,1 20
13.08.2018 13:00:00 21,5 13,3 14 8 - - O 1006,0 20
13.08.2018 12:00:00 21,2 12,5 11 6 - - O 1006,6 18
13.08.2018 11:00:00 20,2 13,3 11 6 - - OZO 1007,1 18
13.08.2018 10:00:00 18,6 13,5 7 4 - - OZO 1007,0 14
13.08.2018 09:00:00 17,4 13,5 7 4 - - ZO 1007,3 14
13.08.2018 08:00:00 16,1 13,8 7 4 - - O 1007,2 10
13.08.2018 07:00:00 16,0 13,2 4 2 - - N 1007,5 9
13.08.2018 06:00:00 16,1 12,8 11 6 - - ZO 1007,5 15
13.08.2018 05:00:00 15,9 13,8 7 4 - - O 1008,3 15
13.08.2018 04:00:00 16,0 14,3 4 2 - - OZO 1008,7 15
13.08.2018 03:00:00 15,8 14,2 4 2 - - N 1009,1 15
13.08.2018 02:00:00 16,0 14,4 7 4 - - N 1009,6 15
13.08.2018 01:00:00 16,3 14,6 7 4 - - ZZO 1009,9 15
13.08.2018 00:00:00 16,3 14,5 4 2 - - Z 1010,3 15
12.08.2018 23:00:00 16,8 14,6 4 2 - - N 1010,5 15
12.08.2018 22:00:00 17,6 13,8 7 4 - - Z 1010,6 15
12.08.2018 21:00:00 17,9 13,8 7 4 - - Z 1010,8 18
12.08.2018 20:00:00 19,5 13,0 7 4 - - Z 1011,0 15
12.08.2018 19:00:00 20,0 12,5 14 8 - - Z 1011,4 20
12.08.2018 18:00:00 19,4 12,6 11 6 - - Z 1012,2 20
12.08.2018 17:00:00 17,9 12,5 7 4 - - N 1013,2 14
12.08.2018 16:00:00 16,1 12,2 7 4 - - ZW 1014,3 8
12.08.2018 15:00:00 16,3 11,9 4 2 - - ZZO 1015,0 12
12.08.2018 14:00:00 17,1 10,6 11 6 - - WZW 1015,6 8
12.08.2018 13:00:00 19,5 8,3 14 8 - - ZW 1015,4 25
12.08.2018 12:00:00 18,7 8,2 14 8 - - ZZW 1015,9 25
12.08.2018 11:00:00 18,3 11,2 14 8 - - ZW 1016,2 25
12.08.2018 10:00:00 16,3 10,5 11 6 - - WZW 1016,5 25
12.08.2018 09:00:00 15,3 11,7 14 8 - - ZW 1016,7 20
12.08.2018 08:00:00 13,8 11,6 11 6 - - ZZW 1016,9 20
12.08.2018 07:00:00 13,6 11,8 11 6 - - ZZW 1016,9 15
12.08.2018 06:00:00 12,6 11,2 11 6 - - ZZW 1016,9 20
12.08.2018 05:00:00 12,5 10,9 7 4 - - ZZW 1017,3 20
12.08.2018 04:00:00 12,8 11,2 7 4 - - ZZW 1017,7 20
12.08.2018 03:00:00 13,3 11,5 7 4 - - ZZW 1017,8 20
12.08.2018 02:00:00 13,6 10,7 7 4 - - ZZW 1018,2 20
12.08.2018 01:00:00 12,1 10,2 7 4 - - ZZW 1018,7 20
12.08.2018 00:00:00 13,5 10,5 11 6 - - W 1018,9 20
11.08.2018 23:00:00 12,3 9,9 7 4 - - WZW 1019,0 20
11.08.2018 22:00:00 13,3 9,7 11 6 - - WZW 1018,9 20
11.08.2018 21:00:00 15,1 11,2 14 8 - - WZW 1018,4 20
11.08.2018 20:00:00 15,2 11,4 22 12 - - WNW 1018,3 20
11.08.2018 19:00:00 16,6 11,2 29 16 54 29 W 1018,0 20
11.08.2018 18:00:00 17,9 11,1 25 14 54 29 W 1017,2 20
11.08.2018 17:00:00 15,8 11,6 32 18 - - W 1017,1 20
11.08.2018 16:00:00 16,2 12,5 22 12 54 29 WZW 1016,5 20
11.08.2018 15:00:00 16,5 11,0 29 16 47 25 W 1016,2 8
11.08.2018 14:00:00 15,8 11,3 22 12 - - W 1015,7 15
11.08.2018 13:00:00 16,5 11,2 14 8 - - ZW 1015,2 8
11.08.2018 12:00:00 15,2 11,3 22 12 47 25 ZW 1015,8 10
11.08.2018 11:00:00 13,5 11,4 25 14 - - WZW 1015,7 10
11.08.2018 10:00:00 15,3 10,8 18 10 - - ZW 1015,6 15
11.08.2018 09:00:00 14,1 10,9 16 9 - - ZZW 1015,4 10
11.08.2018 08:00:00 13,0 10,2 14 8 - - ZZW 1016,0 15
11.08.2018 07:00:00 12,9 10,1 11 6 - - Z 1015,8 15
11.08.2018 06:00:00 13,8 10,7 14 8 - - WZW 1015,8 15
11.08.2018 05:00:00 14,0 10,8 11 6 - - ZZW 1015,9 15
11.08.2018 04:00:00 14,1 9,2 7 4 - - ZZW 1016,0 15
11.08.2018 03:00:00 14,2 9,4 11 6 - - ZZO 1016,2 15
11.08.2018 02:00:00 12,7 9,6 7 4 - - ZO 1017,0 15
11.08.2018 01:00:00 12,7 10,2 7 4 - - OZO 1018,0 15
11.08.2018 00:00:00 12,8 10,2 7 4 - - ZZO 1018,6 15
10.08.2018 23:00:00 13,4 9,7 4 2 - - Z 1019,1 15
10.08.2018 22:00:00 13,0 9,5 7 4 - - Z 1019,4 15
10.08.2018 21:00:00 15,6 9,0 7 4 - - ZZW 1019,6 15
10.08.2018 20:00:00 17,2 10,8 11 6 - - WZW 1019,5 10
10.08.2018 19:00:00 17,4 10,2 7 4 - - ZW 1019,6 10
10.08.2018 18:00:00 18,6 9,1 14 8 47 25 ZW 1019,8 10
10.08.2018 17:00:00 17,7 12,5 14 8 - - ZW 1019,9 10
10.08.2018 16:00:00 16,0 11,0 25 14 47 25 W 1020,1 10
10.08.2018 15:00:00 17,1 11,6 18 10 - - W 1019,6 10
10.08.2018 14:00:00 14,1 11,6 29 16 - - W 1019,7 10
10.08.2018 13:00:00 16,1 11,6 32 18 50 27 W 1018,9 8
10.08.2018 12:00:00 17,6 11,0 25 14 54 29 WNW 1017,6 10
10.08.2018 11:00:00 18,2 9,9 29 16 - - W 1016,5 10
10.08.2018 10:00:00 17,0 10,7 36 19 58 31 W 1015,6 10
10.08.2018 09:00:00 18,0 13,1 22 12 - - WZW 1014,0 10
10.08.2018 08:00:00 15,8 13,2 29 16 - - W 1012,9 10
10.08.2018 07:00:00 17,0 14,2 22 12 - - W 1011,0 10
10.08.2018 06:00:00 17,1 14,4 29 16 50 27 ZW 1009,4 8
10.08.2018 05:00:00 18,0 14,1 25 14 - - ZW 1008,5 20
10.08.2018 04:00:00 18,3 13,8 29 16 61 33 ZZW 1007,4 30
10.08.2018 03:00:00 18,9 13,7 25 14 54 29 ZZW 1006,4 30
10.08.2018 02:00:00 19,7 15,8 25 14 - - Z 1005,9 20
10.08.2018 01:00:00 19,1 17,6 11 6 - - ZZO 1006,3 15
10.08.2018 00:00:00 19,0 17,7 7 4 - - ZZO 1006,4 15
09.08.2018 23:00:00 18,9 17,8 11 6 - - ZO 1007,1 15
09.08.2018 22:00:00 18,8 17,7 14 8 - - OZO 1007,2 25
09.08.2018 21:00:00 18,6 17,8 7 4 61 33 ZZO 1007,2 25
09.08.2018 20:00:00 23,6 15,6 25 14 - - ONO 1006,3 15
09.08.2018 19:00:00 24,4 16,4 25 14 - - ONO 1007,9 12
09.08.2018 18:00:00 24,5 16,8 29 16 - - ONO 1008,8 15
09.08.2018 17:00:00 21,9 17,8 18 10 - - NO 1010,9 25
09.08.2018 16:00:00 22,0 16,6 18 10 - - ONO 1012,6 20
09.08.2018 15:00:00 22,7 15,1 18 10 - - NO 1013,4 20
09.08.2018 14:00:00 24,4 13,0 7 4 - - OZO 1014,2 20
09.08.2018 13:00:00 24,0 12,9 7 4 - - ZO 1014,5 20
09.08.2018 12:00:00 23,0 12,9 7 4 - - ZO 1015,6 20
09.08.2018 11:00:00 22,1 12,7 11 6 - - ZO 1015,8 20
09.08.2018 10:00:00 21,0 13,0 4 2 - - N 1016,3 20
09.08.2018 09:00:00 19,2 13,6 7 4 - - N 1016,6 17
09.08.2018 08:00:00 17,3 14,3 7 4 - - ZZO 1016,1 15
09.08.2018 07:00:00 13,7 12,5 4 2 - - N 1015,8 15
09.08.2018 06:00:00 13,8 12,6 4 2 - - Z 1015,9 12
09.08.2018 05:00:00 15,3 13,3 4 2 - - Z 1015,7 12
09.08.2018 04:00:00 15,1 13,3 4 2 - - Z 1015,6 12
09.08.2018 03:00:00 14,6 12,1 7 4 - - ZZW 1015,5 12
09.08.2018 02:00:00 15,4 12,9 7 4 - - ZW 1015,3 12
09.08.2018 01:00:00 17,1 13,8 11 6 - - WZW 1015,2 12

tt = temperatuur
td = dauwpunt
ff = windsnelheid
fx = windstoten
dd = windrichting
ppp = luchtdruk
vv = zicht

Weerstations in de omgeving